Location: Unspecified
(0.0000°N, 0.0000°E)
Time: 15:30:02
(UTC+00:00)

Courier 1B - Pass Details

Date: 14 February 2026
Orbit: 962 x 1208 km, 28.3° (Epoch: 16 March)

Event Time Altitude Azimuth Distance (km) Brightness Sun altitude
Rises 18:32:55 0° 261° (W) 3,814 13.5 -4.6°
Reaches altitude 10° 18:35:52 10° 271° (W) 2,898 11.6 -5.3°
Maximum altitude 18:42:11 33° 333° (NNW) 1,767 9.0 -6.8°
Drops below altitude 10° 18:48:50 10° 35° (NE) 3,053 9.7 -8.5°
Enters shadow 18:51:04 - 42° (NE) 3,738 10.1 -9.0°
